Location: Newark
(47.1000°N, 5.3000°E)
Time: 06:16:49
(UTC+00:00)

Envisat - Visible Passes

Search period start: 18 October 2019 00:00
Search period end: 28 October 2019 00:00
Orbit: 764 x 766 km, 98.1° (Epoch: 17 October)

Date Brightness Start Highest point End Pass type
(mag) Time Alt. Az. Time Alt. Az. Time Alt. Az.
18 Oct 5.4 18:46:40 10° SW 18:50:42 23° W 18:54:44 10° NW visible
19 Oct 6.3 05:13:53 10° ENE 05:16:24 14° E 05:18:55 10° ESE visible
19 Oct 4.1 18:08:46 10° S 18:13:39 48° W 18:18:35 10° NNW visible
20 Oct 3.0 17:31:45 10° SSE 17:36:49 83° ENE 17:41:56 10° NNW visible
20 Oct 6.1 19:13:55 10° WSW 19:16:30 14° W 19:19:06 10° WNW visible
21 Oct 5.0 18:34:57 10° SSW 18:39:19 29° W 18:43:44 10° NW visible
22 Oct 6.7 05:03:51 10° ENE 05:04:58 11° E 05:06:05 10° E visible
22 Oct 3.6 17:57:21 10° S 18:02:21 60° W 18:07:23 10° NNW visible
23 Oct 3.0 17:20:33 10° SSE 17:25:34 67° ENE 17:30:39 10° N visible
23 Oct 5.8 19:01:46 10° SW 19:05:06 17° W 19:08:26 10° NW visible
24 Oct 6.0 05:27:18 10° NE 05:30:50 19° E 05:34:21 10° SE visible
24 Oct 4.6 18:23:20 10° SSW 18:27:59 35° W 18:32:39 10° NNW visible
25 Oct 3.2 17:46:00 10° S 17:51:04 74° WSW 17:56:11 10° NNW visible
26 Oct 3.1 17:09:24 10° SSE 17:14:21 54° ENE 17:19:19 10° N visible
26 Oct 5.5 18:49:51 10° SW 18:53:42 22° W 18:57:35 10° NW visible
27 Oct 6.2 05:16:34 10° NE 05:19:26 15° E 05:22:17 10° ESE visible
27 Oct 4.2 18:11:49 10° S 18:16:38 44° W 18:21:31 10° NNW visible
